BEIDOU IGSO 2

Last updated on Tue Apr 02 2019 03:15:24 GMT+0000 (Coordinated Universal Time)

1 37256U 10068A 19091.35039035 -.00000180 00000-0 10000-3 0 9990 2 37256 52.1978 303.5703 0064390 203.6372 285.8754 1.00295074 30395

Satellite not in orbit

BEIDOU IGSO 2